Location: Esp�n
(42.4593°N, 0.2047°W)
Time: 14:07:00
(UTC+00:00)

Hubble Space Telescope - Visible Passes

Search period start: 24 July 2021 00:00
Search period end: 03 August 2021 00:00
Orbit: 535 x 539 km, 28.5° (Epoch: 23 July)

Date Brightness Start Highest point End Pass type
(mag) Time Alt. Az. Time Alt. Az. Time Alt. Az.
24 Jul 3.0 20:45:26 10° S 20:45:59 10° S 20:45:59 10° S visible
25 Jul 2.9 20:33:56 10° SSW 20:35:06 11° S 20:35:44 11° SSE visible
26 Jul 2.9 20:22:38 10° SSW 20:23:59 11° S 20:25:20 10° SSE visible
27 Jul 2.9 20:11:28 10° SSW 20:12:52 11° S 20:14:14 10° SSE visible
28 Jul 3.0 20:00:26 10° SSW 20:01:44 11° S 20:03:02 10° SSE visible
